Regional Weather Roundup
Issued by NWS

Home | Current Version | Previous Version | Text Only | Print | Product List | Glossary Off
Versions: 1 2 3 4 5 6 7 8 9 10 11 12 13 14 15 16 17 18 19 20 21 22 23 24 25 26 27

000
ASUS45 KTFX 011910
RWRMT
MONTANA REGIONAL WEATHER ROUNDUP
NATIONAL WEATHER SERVICE GREAT FALLS MT
100 PM MDT SUN MAY 01 2016

NOTE: "FAIR" INDICATES FEW OR NO CLOUDS BELOW 12000 FEET WITH NO
SIGNIFICANT WEATHER AND/OR OBSTRUCTIONS TO VISIBILITY.

MTZ001>007-043-012000-
WEST OF THE DIVIDE

CITY           SKY/WX    TMP DP  RH WIND       PRES   REMARKS
KALISPELL      SUNNY     63  34  33 MISG      30.22F
MISSOULA       SUNNY     62  34  35 SE9G20    30.22F
BUTTE          SUNNY     52  27  38 SE15      30.26F
MULLAN PASS    SUNNY     49  30  48 VRB7      30.24S
ANACONDA         N/A     54  28  37 CALM      30.25F
DEER LODGE       N/A     55  32  41 S7        30.26F
EUREKA           N/A     59  36  41 W3        30.25F
HAMILTON         N/A     57  30  35 NE5       30.21F
LIBBY            N/A     63  36  36 NW7       30.22F
PLAINS           N/A     64  41  43 CALM      30.21F
THOMPSON FALLS   N/A     66  36  33 NE13      30.22F
$$

MTZ008-052>055-012000-
SOUTHWEST MONTANA

CITY           SKY/WX    TMP DP  RH WIND       PRES   REMARKS
BOZEMAN        SUNNY     56  27  32 VRB3      30.25F
DILLON         SUNNY     53  28  38 NE7       30.23F
ENNIS          SUNNY     54  30  40 NW10      30.29F
TWIN BRIDGES     N/A     56  25  30 N15       30.20F
$$

MTZ009-010-012-014-046-048-049-054-012000-
EAST SLOPES AND CENTRAL MONTANA

CITY           SKY/WX    TMP DP  RH WIND       PRES   REMARKS
CUT BANK       SUNNY     58  33  39 S14       30.27F
GREAT FALLS    SUNNY     57  30  35 SE6       30.28F
HELENA         SUNNY     59  28  30 SE9       30.26F
CHOTEAU          N/A     55  32  41 VRB7      30.29F
CONRAD           N/A     58  36  43 S6        30.28F
$$

MTZ011-013-016-021-045-047-050-051-012000-
NORTH CENTRAL MONTANA

CITY           SKY/WX    TMP DP  RH WIND       PRES   REMARKS
HAVRE          SUNNY     62  34  35 VRB6      30.28F
LEWISTOWN      SUNNY     57  28  33 SE9       30.29F
N BAR RANCH      N/A     52  25  35 CALM      30.32F
CHINOOK          N/A     63  36  36 W7        30.28F
$$

MTZ017>020-022>027-061-062-012000-
NORTHEAST MONTANA

CITY           SKY/WX    TMP DP  RH WIND       PRES   REMARKS
GLASGOW        SUNNY     64  31  28 VRB6      30.28F
JORDAN           N/A     60  29  30 VRB3      30.29F
SIDNEY         SUNNY     63  28  27 N6        30.28F
WOLF POINT     SUNNY     65  30  27 E5        30.27F
PLENTYWOOD       N/A     63  25  23 N3        30.25F
POPLAR           N/A     63  27  25 NE5       30.28F
$$

MTZ028>42-056>058-012000-
SOUTHCENTRAL AND SOUTHEAST MONTANA

CITY           SKY/WX    TMP DP  RH WIND       PRES   REMARKS
BAKER          MOSUNNY   59  29  31 MISG      30.30F
BILLINGS       CLOUDY    56  29  35 SE6       30.29F
LIVINGSTON     SUNNY     57  30  35 E16G26    30.25F
MILES CITY     SUNNY     60  30  32 SE8       30.30F
FORSYTH          N/A     59  28  31 SE5       30.30F
LAUREL           N/A     57  28  33 W1        30.26F
ROUNDUP          N/A     56  27  33 CALM      30.18F
$$

REGIONAL REPORTS...DAKOTAS

CITY           SKY/WX    TMP DP  RH WIND       PRES   REMARKS
WILLISTON      SUNNY     64  28  25 NE10      30.27F
MINOT          SUNNY     66  25  21 N6        30.25F
DICKINSON      SUNNY     58  28  32 VRB3      30.25F
BEACH            N/A     59  27  29 N8        30.30F
CROSBY           N/A     63  23  22 W7        30.27F
WATFORD CITY     N/A     61  28  29 SE5       30.27F
BISMARCK       SUNNY     62  29  28 VRB5      30.26F
GRAND FORKS    SUNNY     63  30  28 NE9       30.22F
FARGO          SUNNY     62  30  29 NW9       30.21F
BUFFALO SD       N/A     59  28  30 VRB5      30.22F
RAPID CITY     MOSUNNY   55  31  39 NE14G21   30.29F
$$

REGIONAL REPORTS...WYOMING/IDAHO/WASHINGTON

CITY           SKY/WX    TMP DP  RH WIND       PRES   REMARKS
GILLETTE       MOSUNNY   50  28  42 NE8       30.30F
SHERIDAN       SUNNY     55  28  35 VRB7      30.30F
BUFFALO WY       N/A    N/A N/A N/A MISG      30.31F
CODY           MOSUNNY   50  27  40 E5        30.29F
YELLOWSTONE LA   N/A     41  17  38 VRB5      30.30F
IDAHO FALLS    SUNNY     56  27  32 N9        30.18F
SALMON         SUNNY     57  28  33 E8        30.18F
BOISE          MOSUNNY   64  38  38 N3        30.12F
SPOKANE        MOSUNNY   65  34  31 E15G23    30.17F
$$

REGIONAL REPORTS...ALBERTA

CITY           SKY/WX    TMP DP  RH WIND       PRES   REMARKS
EDMONTON       SUNNY     68  34  28 W6        30.15F
CALGARY        MOSUNNY   64  30  27 VRB5      30.23F
LETHBRIDGE     MOSUNNY   63  30  29 NW6G18    30.24F
MEDICINE HAT   PTSUNNY   64  37  36 SW13      30.25F
MILK RIVER       N/A     59  32  36 S7          N/A
$$

REGIONAL REPORTS...SASKATCHEWAN

CITY           SKY/WX    TMP DP  RH WIND       PRES   REMARKS
SWIFT CURRENT  MOSUNNY   64  30  27 SW13G23   30.23F
REGINA         PTSUNNY   68  32  26 NW8G25    30.19F
SASKATOON      PTSUNNY   68  34  28 W13G22    30.17F
CYPRESS HILLS    N/A     55  28  35 W6          N/A
VAL MARIE        N/A     64  28  25 SW8         N/A
ROCKGLEN         N/A     63  28  27 SW7         N/A
$$




USA.gov is the U.S. government's official web portal to all federal, state and local government web resources and services.